sat.trackr.live / text

‹ back to catalog

STARLINK-31940

NORAD 59873 · 2024-098R

PAYLOAD ACTIVE UNKNOWN

§ Identity

Operator
Country
US
Launch date
2024-05-24
Launch site
AFETR
Launch vehicle
Mass (kg)
RCS (m²)

Purposes: comms

External: N2YO · Heavens-Above · Gunter

§ Orbital elements

Epoch: 2026-05-25T04:30:59.016384Z

Period
94.27 min
Inclination
43.0013°
Eccentricity
0.0001104
Mean motion
15.27578287 rev/d
Perigee alt
482.3 km
Apogee alt
483.8 km
Semi-major
6,861.2 km
B*
-4.2195e-6
RAAN
198.3573°
Arg perigee
275.9275°
Mean anomaly
84.1451°
Rev number
11,363

§ Raw data

STARLINK-319401 59873U 24098R   26145.18818306 -.00000378  00000+0 -42195-5 0  99932 59873  43.0013 198.3573 0001104 275.9275  84.1451 15.27578287113633

JSON: /api/v1/satellites/59873 · /tle

For live sub-satellite position, see the globe view (requires WebGL).

§ Visibility from observer

Set your observer location to see the next 7 days of passes ≥ 10°. The values pass through the URL so the page stays shareable.

No JS? Fill the form by hand. The geolocation button needs JavaScript.